Location: Beaver Brook Station
(42.3793°N, 71.2203°W)
Time: 05:51:42
(UTC+00:00)

X-37B - Pass Details

Date: 28 January 2021
Orbit: 383 x 391 km, 45.0° (Epoch: 27 February)

Event Time Altitude Azimuth Distance (km) Brightness Sun altitude
Rises 22:19:45 0° 283° (WNW) 2,271 5.6 -5.2°
Reaches altitude 10° 22:21:51 10° 288° (WNW) 1,417 4.3 -5.6°
Maximum altitude 22:24:59 55° 8° (N) 475 0.9 -6.1°
Drops below altitude 10° 22:28:08 10° 87° (E) 1,419 2.8 -6.7°
Enters shadow 22:28:30 - 88° (E) 1,568 3.0 -6.8°
